WMT7M LROP-LGIR

Flight info

Callsign WMT7M
Flight time 1h 25m
Altitude 36000
Route POLUN DCT TIMUR DCT NIKTI/N0442F370 DCT KOROS/N0446F320 UT162 NEVRA/N0438F370 UT514 XAVIS
Aircraft A320/M-SDE3FGHIRWY/LB1

Departure

Time 2026-05-07 17:37
Airport Bucharest Henri Coandă International Airport (LROP)

Arrival

Time 2026-05-07 19:02
Airport Heraklion International Nikos Kazantzakis Airport (LGIR)
Time Latitude Longitude Altitude Speed Heading
2026-05-07 17:16 44.57013 26.07961 317 ft 0 kts 353°
2026-05-07 17:28 44.57012 26.07961 317 ft 2 kts 353°
2026-05-07 17:28 44.56995 26.07963 315 ft 3 kts 353°
2026-05-07 17:28 44.56977 26.07966 315 ft 3 kts 353°
2026-05-07 17:29 44.56960 26.07969 314 ft 2 kts 353°
2026-05-07 17:29 44.56953 26.07970 314 ft 0 kts 353°
2026-05-07 17:32 44.56959 26.07972 314 ft 1 kts 19°
2026-05-07 17:32 44.56961 26.07981 315 ft 1 kts 64°
2026-05-07 17:32 44.56960 26.07995 316 ft 2 kts 94°
2026-05-07 17:32 44.56958 26.08029 317 ft 5 kts 94°
2026-05-07 17:33 44.56941 26.08068 316 ft 5 kts 112°
2026-05-07 17:33 44.56939 26.08126 317 ft 7 kts 84°
2026-05-07 17:33 44.56944 26.08203 317 ft 10 kts 86°
2026-05-07 17:33 44.56951 26.08312 316 ft 13 kts 83°
2026-05-07 17:34 44.57014 26.08382 316 ft 14 kts
2026-05-07 17:34 44.57117 26.08372 315 ft 16 kts 356°
2026-05-07 17:34 44.57219 26.08392 316 ft 13 kts 58°
2026-05-07 17:34 44.57265 26.08494 319 ft 13 kts 15°
2026-05-07 17:35 44.57352 26.08481 321 ft 13 kts 354°
2026-05-07 17:35 44.57443 26.08471 322 ft 14 kts 355°
2026-05-07 17:35 44.57536 26.08460 324 ft 13 kts 355°
2026-05-07 17:35 44.57625 26.08454 326 ft 12 kts 12°
2026-05-07 17:36 44.57671 26.08551 326 ft 14 kts 80°
2026-05-07 17:36 44.57701 26.08924 320 ft 72 kts 84°
2026-05-07 17:36 44.57778 26.09911 323 ft 127 kts 84°
2026-05-07 17:36 44.57878 26.11341 447 ft 159 kts 85°
2026-05-07 17:37 44.57990 26.12904 946 ft 163 kts 85°
2026-05-07 17:37 44.58131 26.14538 1356 ft 175 kts 84°
2026-05-07 17:37 44.58309 26.16289 1814 ft 187 kts 84°
2026-05-07 17:37 44.58358 26.18173 2196 ft 203 kts 107°
2026-05-07 17:38 44.57612 26.19914 2533 ft 221 kts 142°
2026-05-07 17:38 44.56169 26.20847 2908 ft 242 kts 173°
2026-05-07 17:38 44.54470 26.20537 3525 ft 254 kts 205°
2026-05-07 17:38 44.53078 26.19021 4367 ft 259 kts 234°
2026-05-07 17:39 44.52336 26.16727 5263 ft 261 kts 254°
2026-05-07 17:39 44.51889 26.14257 6198 ft 263 kts 256°
2026-05-07 17:39 44.51466 26.11758 7057 ft 265 kts 256°
2026-05-07 17:39 44.51045 26.09227 7879 ft 269 kts 256°
2026-05-07 17:40 44.50629 26.06649 8700 ft 273 kts 256°
2026-05-07 17:40 44.50212 26.04047 9525 ft 276 kts 256°
2026-05-07 17:40 44.49802 26.01398 10231 ft 284 kts 256°
2026-05-07 17:40 44.49333 25.98608 10462 ft 305 kts 249°
2026-05-07 17:41 44.48451 25.95805 10779 ft 321 kts 244°
2026-05-07 17:41 44.47496 25.92935 11388 ft 328 kts 244°
2026-05-07 17:41 44.46526 25.90024 12055 ft 332 kts 244°
2026-05-07 17:41 44.45542 25.87069 12702 ft 337 kts 244°
2026-05-07 17:42 44.44548 25.84079 13349 ft 341 kts 244°
2026-05-07 17:42 44.43540 25.81056 13982 ft 345 kts 244°
2026-05-07 17:42 44.42518 25.77996 14564 ft 349 kts 244°
2026-05-07 17:42 44.41487 25.74911 15157 ft 351 kts 244°
2026-05-07 17:43 44.40447 25.71804 15749 ft 354 kts 244°
2026-05-07 17:43 44.39399 25.68674 16339 ft 357 kts 244°
2026-05-07 17:43 44.38344 25.65518 16926 ft 360 kts 244°
2026-05-07 17:43 44.37281 25.62336 17515 ft 363 kts 244°
2026-05-07 17:44 44.36206 25.59133 18095 ft 366 kts 244°
2026-05-07 17:44 44.35102 25.55858 18634 ft 369 kts 244°
2026-05-07 17:44 44.34001 25.52601 19150 ft 372 kts 244°
2026-05-07 17:44 44.32895 25.49326 19676 ft 375 kts 244°
2026-05-07 17:45 44.31793 25.46064 20190 ft 377 kts 244°
2026-05-07 17:45 44.30655 25.42699 20731 ft 380 kts 244°
2026-05-07 17:45 44.29523 25.39355 21228 ft 382 kts 244°
2026-05-07 17:45 44.28381 25.35988 21708 ft 385 kts 244°
2026-05-07 17:46 44.27231 25.32603 22212 ft 387 kts 244°
2026-05-07 17:46 44.26075 25.29206 22706 ft 389 kts 244°
2026-05-07 17:46 44.24910 25.25782 23169 ft 391 kts 244°
2026-05-07 17:46 44.23666 25.22395 23618 ft 394 kts 238°
2026-05-07 17:47 44.22072 25.19275 24002 ft 396 kts 232°
2026-05-07 17:47 44.20391 25.16218 24409 ft 398 kts 233°
2026-05-07 17:47 44.18701 25.13149 24804 ft 400 kts 233°
2026-05-07 17:47 44.17004 25.10068 25203 ft 402 kts 233°
2026-05-07 17:48 44.15297 25.06972 25599 ft 404 kts 233°
2026-05-07 17:48 44.13582 25.03865 25992 ft 405 kts 233°
2026-05-07 17:48 44.11862 25.00753 26403 ft 407 kts 233°
2026-05-07 17:48 44.10135 24.97627 26779 ft 408 kts 233°
2026-05-07 17:49 44.08403 24.94485 27000 ft 410 kts 233°
2026-05-07 17:49 44.06687 24.91377 27040 ft 401 kts 233°
2026-05-07 17:49 44.04992 24.88320 27043 ft 398 kts 233°
2026-05-07 17:49 44.03305 24.85282 27043 ft 396 kts 233°
2026-05-07 17:50 44.01621 24.82254 27043 ft 396 kts 233°
2026-05-07 17:50 43.99936 24.79226 27043 ft 396 kts 233°
2026-05-07 17:50 43.98252 24.76200 27043 ft 396 kts 233°
2026-05-07 17:50 43.96569 24.73175 27043 ft 396 kts 233°
2026-05-07 17:51 43.94884 24.70150 27044 ft 396 kts 233°
2026-05-07 17:51 43.93201 24.67130 27049 ft 396 kts 233°
2026-05-07 17:51 43.91514 24.64110 27048 ft 396 kts 233°
2026-05-07 17:51 43.89827 24.61096 27047 ft 396 kts 233°
2026-05-07 17:52 43.88141 24.58084 27049 ft 396 kts 233°
2026-05-07 17:52 43.86457 24.55075 27048 ft 396 kts 233°
2026-05-07 17:52 43.84767 24.52064 27045 ft 396 kts 233°
2026-05-07 17:52 43.83075 24.49054 27044 ft 396 kts 233°
2026-05-07 17:53 43.81383 24.46046 27043 ft 396 kts 233°
2026-05-07 17:53 43.79688 24.43039 27048 ft 396 kts 233°
2026-05-07 17:53 43.77993 24.40032 27049 ft 396 kts 233°
2026-05-07 17:53 43.76298 24.37028 27046 ft 396 kts 232°
2026-05-07 17:54 43.74600 24.34023 27048 ft 396 kts 232°
2026-05-07 17:54 43.72905 24.31022 27053 ft 396 kts 232°
2026-05-07 17:54 43.71050 24.28206 27052 ft 397 kts 222°
2026-05-07 17:54 43.68810 24.25974 27044 ft 399 kts 211°
2026-05-07 17:55 43.66263 24.24435 27038 ft 401 kts 199°
2026-05-07 17:55 43.63523 24.23652 27040 ft 404 kts 187°
2026-05-07 17:55 43.60710 24.23458 27037 ft 406 kts 184°
2026-05-07 17:55 43.57890 24.23301 27039 ft 406 kts 184°
2026-05-07 17:56 43.55067 24.23143 27041 ft 406 kts 184°
2026-05-07 17:56 43.52242 24.22986 27044 ft 406 kts 184°
2026-05-07 17:56 43.49417 24.22825 27040 ft 407 kts 184°
2026-05-07 17:56 43.46591 24.22661 27041 ft 407 kts 184°
2026-05-07 17:57 43.43760 24.22499 27039 ft 407 kts 184°
2026-05-07 17:57 43.41889 24.22394 27037 ft 407 kts 184°
2026-05-07 17:57 43.38105 24.22183 27041 ft 407 kts 184°
2026-05-07 17:57 43.35277 24.22021 27045 ft 407 kts 184°
2026-05-07 17:58 43.32446 24.21859 27049 ft 407 kts 185°
2026-05-07 17:58 43.29614 24.21699 27049 ft 407 kts 185°
2026-05-07 17:58 43.26784 24.21540 27053 ft 407 kts 185°
2026-05-07 17:58 43.23951 24.21384 27054 ft 408 kts 185°
2026-05-07 17:59 43.21117 24.21230 27058 ft 408 kts 185°
2026-05-07 17:59 43.18280 24.21077 27059 ft 408 kts 185°
2026-05-07 17:59 43.15445 24.20922 27063 ft 408 kts 185°
2026-05-07 17:59 43.12611 24.20762 27062 ft 408 kts 185°
2026-05-07 18:00 43.09774 24.20602 27062 ft 408 kts 185°
2026-05-07 18:00 43.06937 24.20441 27065 ft 408 kts 185°
2026-05-07 18:00 43.04101 24.20278 27070 ft 408 kts 185°
2026-05-07 18:00 43.01264 24.20117 27072 ft 408 kts 185°
2026-05-07 18:01 42.98424 24.19959 27081 ft 409 kts 185°
2026-05-07 18:01 42.95582 24.19804 27071 ft 409 kts 185°
2026-05-07 18:01 42.92740 24.19649 27072 ft 408 kts 185°
2026-05-07 18:01 42.89900 24.19492 27081 ft 408 kts 185°
2026-05-07 18:02 42.84219 24.19179 27088 ft 409 kts 185°
2026-05-07 18:02 42.82337 24.19075 27088 ft 409 kts 185°
2026-05-07 18:02 42.79461 24.18917 27092 ft 409 kts 185°
2026-05-07 18:03 42.76617 24.18758 27087 ft 409 kts 185°
2026-05-07 18:03 42.73777 24.18600 27093 ft 409 kts 185°
2026-05-07 18:03 42.70972 24.18446 27099 ft 408 kts 185°
2026-05-07 18:03 42.68097 24.18291 27102 ft 408 kts 185°
2026-05-07 18:04 42.65262 24.18137 27107 ft 408 kts 185°
2026-05-07 18:04 42.62426 24.17981 27108 ft 408 kts 185°
2026-05-07 18:04 42.59593 24.17823 27098 ft 407 kts 185°
2026-05-07 18:04 42.56760 24.17664 27099 ft 407 kts 185°
2026-05-07 18:05 42.53930 24.17508 27094 ft 407 kts 185°
2026-05-07 18:05 42.51096 24.17354 27083 ft 407 kts 185°
2026-05-07 18:05 42.48262 24.17201 27083 ft 408 kts 185°
2026-05-07 18:05 42.45465 24.17054 27084 ft 408 kts 185°
2026-05-07 18:06 42.42595 24.16901 27087 ft 408 kts 185°
2026-05-07 18:06 42.39795 24.16749 27080 ft 408 kts 185°
2026-05-07 18:06 42.36925 24.16592 27078 ft 408 kts 185°
2026-05-07 18:06 42.34087 24.16439 27076 ft 408 kts 185°
2026-05-07 18:07 42.31255 24.16284 27074 ft 408 kts 185°
2026-05-07 18:07 42.28418 24.16129 27074 ft 408 kts 185°
2026-05-07 18:07 42.25583 24.15973 27075 ft 408 kts 185°
2026-05-07 18:07 42.22746 24.15818 27076 ft 408 kts 185°
2026-05-07 18:08 42.19912 24.15661 27085 ft 408 kts 185°
2026-05-07 18:08 42.17073 24.15506 27087 ft 408 kts 185°
2026-05-07 18:08 42.14239 24.15352 27091 ft 408 kts 185°
2026-05-07 18:08 42.11401 24.15198 27093 ft 408 kts 185°
2026-05-07 18:09 42.08558 24.15044 27095 ft 408 kts 185°
2026-05-07 18:09 42.05721 24.14891 27107 ft 408 kts 185°
2026-05-07 18:09 42.02879 24.14740 27108 ft 409 kts 185°
2026-05-07 18:09 42.00040 24.14588 27109 ft 408 kts 185°
2026-05-07 18:10 41.97199 24.14440 27106 ft 408 kts 185°
2026-05-07 18:10 41.94365 24.14292 27108 ft 408 kts 185°
2026-05-07 18:10 41.91528 24.14143 27119 ft 408 kts 185°
2026-05-07 18:10 41.88692 24.13990 27122 ft 408 kts 185°
2026-05-07 18:11 41.85855 24.13835 27124 ft 408 kts 185°
2026-05-07 18:11 41.83019 24.13677 27130 ft 408 kts 185°
2026-05-07 18:11 41.80183 24.13522 27119 ft 408 kts 185°
2026-05-07 18:11 41.77352 24.13372 27119 ft 407 kts 185°
2026-05-07 18:12 41.74518 24.13222 27133 ft 407 kts 185°
2026-05-07 18:12 41.71684 24.13073 27134 ft 408 kts 185°
2026-05-07 18:12 41.68851 24.12924 27138 ft 407 kts 185°
2026-05-07 18:12 41.66019 24.12774 27135 ft 407 kts 185°
2026-05-07 18:13 41.63186 24.12621 27131 ft 407 kts 185°
2026-05-07 18:13 41.60352 24.12468 27124 ft 407 kts 185°
2026-05-07 18:13 41.57520 24.12317 27125 ft 408 kts 185°
2026-05-07 18:13 41.54678 24.12383 27126 ft 410 kts 176°
2026-05-07 18:14 41.51868 24.13082 27124 ft 413 kts 168°
2026-05-07 18:14 41.49082 24.14027 27121 ft 413 kts 168°
2026-05-07 18:14 41.46296 24.14970 27121 ft 413 kts 168°
2026-05-07 18:14 41.43506 24.15911 27119 ft 413 kts 168°
2026-05-07 18:15 41.40718 24.16849 27110 ft 413 kts 169°
2026-05-07 18:15 41.37936 24.17782 27111 ft 413 kts 169°
2026-05-07 18:15 41.35143 24.18717 27112 ft 413 kts 169°
2026-05-07 18:15 41.32356 24.19649 27110 ft 413 kts 169°
2026-05-07 18:16 41.29569 24.20580 27111 ft 413 kts 169°
2026-05-07 18:16 41.26782 24.21513 27106 ft 413 kts 169°
2026-05-07 18:16 41.24000 24.22443 27108 ft 413 kts 169°
2026-05-07 18:16 41.21210 24.23377 27109 ft 413 kts 169°
2026-05-07 18:17 41.18423 24.24310 27097 ft 413 kts 169°
2026-05-07 18:17 41.15638 24.25238 27096 ft 413 kts 169°
2026-05-07 18:17 41.12847 24.26163 27100 ft 413 kts 169°
2026-05-07 18:17 41.10060 24.27087 27097 ft 413 kts 169°
2026-05-07 18:18 41.07268 24.28011 27098 ft 413 kts 169°
2026-05-07 18:18 41.04478 24.28933 27095 ft 413 kts 169°
2026-05-07 18:18 41.01684 24.29856 27094 ft 414 kts 169°
2026-05-07 18:18 40.98897 24.30779 27093 ft 414 kts 169°
2026-05-07 18:19 40.96105 24.31705 27082 ft 414 kts 169°
2026-05-07 18:19 40.93307 24.32634 27085 ft 415 kts 169°
2026-05-07 18:19 40.90506 24.33562 27082 ft 415 kts 169°
2026-05-07 18:19 40.87701 24.34489 27085 ft 416 kts 169°
2026-05-07 18:20 40.84891 24.35417 27085 ft 416 kts 169°
2026-05-07 18:20 40.82077 24.36348 27088 ft 417 kts 169°
2026-05-07 18:20 40.79263 24.37277 27089 ft 417 kts 169°
2026-05-07 18:20 40.76445 24.38206 27084 ft 417 kts 169°
2026-05-07 18:21 40.73624 24.39135 27077 ft 418 kts 169°
2026-05-07 18:21 40.70804 24.40061 27085 ft 418 kts 169°
2026-05-07 18:21 40.67977 24.40987 27093 ft 418 kts 169°
2026-05-07 18:21 40.65155 24.41897 27096 ft 417 kts 172°
2026-05-07 18:22 40.62291 24.42282 27104 ft 413 kts 181°
2026-05-07 18:22 40.60394 24.42398 27106 ft 413 kts 181°
2026-05-07 18:22 40.56557 24.42619 27114 ft 413 kts 181°
2026-05-07 18:22 40.53687 24.42778 27095 ft 413 kts 181°
2026-05-07 18:23 40.50808 24.42941 27098 ft 414 kts 181°
2026-05-07 18:23 40.47929 24.43107 27099 ft 415 kts 181°
2026-05-07 18:23 40.45044 24.43276 27098 ft 415 kts 181°
2026-05-07 18:23 40.42153 24.43449 27102 ft 416 kts 181°
2026-05-07 18:24 40.39264 24.43621 27106 ft 416 kts 181°
2026-05-07 18:24 40.36370 24.43790 27104 ft 416 kts 181°
2026-05-07 18:24 40.33476 24.43955 27097 ft 417 kts 181°
2026-05-07 18:24 40.30575 24.44117 27093 ft 418 kts 181°
2026-05-07 18:25 40.27666 24.44278 27092 ft 419 kts 181°
2026-05-07 18:25 40.24754 24.44443 27092 ft 419 kts 181°
2026-05-07 18:25 40.21841 24.44613 27094 ft 420 kts 181°
2026-05-07 18:25 40.18918 24.44781 27101 ft 420 kts 181°
2026-05-07 18:26 40.15996 24.44946 27104 ft 420 kts 181°
2026-05-07 18:26 40.13074 24.45112 27106 ft 421 kts 181°
2026-05-07 18:26 40.10148 24.45280 27117 ft 421 kts 181°
2026-05-07 18:26 40.07222 24.45448 27119 ft 421 kts 181°
2026-05-07 18:27 40.04284 24.45619 27120 ft 421 kts 181°
2026-05-07 18:27 40.01357 24.45786 27124 ft 421 kts 181°
2026-05-07 18:27 39.98424 24.45951 27125 ft 421 kts 181°
2026-05-07 18:27 39.96487 24.46061 27121 ft 421 kts 181°
2026-05-07 18:28 39.92569 24.46283 27109 ft 422 kts 182°
2026-05-07 18:28 39.89632 24.46447 27106 ft 422 kts 182°
2026-05-07 18:28 39.86693 24.46613 27106 ft 423 kts 182°
2026-05-07 18:28 39.83751 24.46781 27109 ft 424 kts 182°
2026-05-07 18:29 39.80805 24.46951 27104 ft 424 kts 182°
2026-05-07 18:29 39.77860 24.47123 27107 ft 424 kts 182°
2026-05-07 18:29 39.74908 24.47291 27106 ft 425 kts 182°
2026-05-07 18:29 39.71954 24.47456 27096 ft 425 kts 182°
2026-05-07 18:30 39.68997 24.47620 27099 ft 426 kts 182°
2026-05-07 18:30 39.66033 24.47784 27100 ft 426 kts 182°
2026-05-07 18:30 39.63069 24.47952 27098 ft 427 kts 182°
2026-05-07 18:30 39.60097 24.48120 27100 ft 427 kts 182°
2026-05-07 18:31 39.57123 24.48290 27103 ft 428 kts 182°
2026-05-07 18:31 39.54153 24.48457 27105 ft 428 kts 182°
2026-05-07 18:31 39.47508 24.48825 27097 ft 428 kts 183°
2026-05-07 18:31 39.35603 24.49501 27106 ft 429 kts 182°
2026-05-07 18:32 39.23676 24.50164 27105 ft 429 kts 183°
2026-05-07 18:32 39.11743 24.50821 27111 ft 430 kts 183°
2026-05-07 18:32 38.99791 24.51490 27108 ft 430 kts 183°
2026-05-07 18:32 38.87801 24.52163 27111 ft 431 kts 183°
2026-05-07 18:33 38.75839 24.52830 27142 ft 430 kts 183°
2026-05-07 18:33 38.63894 24.53479 27144 ft 429 kts 183°
2026-05-07 18:33 38.51964 24.54125 27142 ft 428 kts 183°
2026-05-07 18:33 38.40083 24.54779 27125 ft 427 kts 183°
2026-05-07 18:34 38.28210 24.55419 27134 ft 427 kts 183°
2026-05-07 18:34 38.16290 24.56351 27073 ft 436 kts 173°
2026-05-07 18:34 38.04638 24.61263 27133 ft 439 kts 167°
2026-05-07 18:34 37.92972 24.66124 27264 ft 439 kts 166°
2026-05-07 18:35 37.81323 24.71054 27279 ft 443 kts 166°
2026-05-07 18:35 37.69611 24.75976 27250 ft 449 kts 166°
2026-05-07 18:35 37.57839 24.80891 27224 ft 450 kts 166°
2026-05-07 18:35 37.46076 24.85829 27197 ft 455 kts 166°
2026-05-07 18:36 37.34195 24.90763 27106 ft 455 kts 167°
2026-05-07 18:36 37.22286 24.95688 27048 ft 458 kts 166°
2026-05-07 18:36 37.10330 25.00637 26971 ft 457 kts 166°
2026-05-07 18:36 36.98349 25.05560 26976 ft 458 kts 166°
2026-05-07 18:37 36.86282 25.10508 26980 ft 453 kts 166°
2026-05-07 18:37 36.74222 25.15457 27020 ft 452 kts 166°
2026-05-07 18:37 36.70321 25.17046 27175 ft 457 kts 166°
2026-05-07 18:37 36.67330 25.18258 26946 ft 447 kts 166°
2026-05-07 18:38 36.64416 25.19444 26843 ft 434 kts 166°
2026-05-07 18:38 36.61539 25.20620 26608 ft 426 kts 166°
2026-05-07 18:38 36.58763 25.21752 26185 ft 424 kts 166°
2026-05-07 18:38 36.55966 25.22886 25764 ft 422 kts 165°
2026-05-07 18:39 36.54087 25.23646 25497 ft 420 kts 165°
2026-05-07 18:39 36.51313 25.24768 25086 ft 418 kts 165°
2026-05-07 18:39 36.47628 25.26258 24526 ft 415 kts 165°
2026-05-07 18:39 36.44923 25.27351 24112 ft 413 kts 164°
2026-05-07 18:40 36.43079 25.28097 23820 ft 412 kts 164°
2026-05-07 18:40 36.40362 25.29197 23334 ft 410 kts 164°
2026-05-07 18:40 36.37664 25.30288 22905 ft 406 kts 164°
2026-05-07 18:40 36.34130 25.31717 22332 ft 401 kts 164°
2026-05-07 18:41 36.32346 25.32436 22067 ft 397 kts 164°
2026-05-07 18:41 36.29737 25.33485 21677 ft 392 kts 164°
2026-05-07 18:41 36.27158 25.34523 21300 ft 388 kts 164°
2026-05-07 18:41 36.24606 25.35553 20922 ft 383 kts 164°
2026-05-07 18:42 36.22084 25.36572 20552 ft 379 kts 164°
2026-05-07 18:42 36.19587 25.37579 20188 ft 375 kts 164°
2026-05-07 18:42 36.17115 25.38572 19828 ft 372 kts 165°
2026-05-07 18:42 36.14666 25.39553 19464 ft 368 kts 165°
2026-05-07 18:43 36.12242 25.40522 19119 ft 365 kts 165°
2026-05-07 18:43 36.09843 25.41485 18775 ft 361 kts 165°
2026-05-07 18:43 36.07459 25.42445 18416 ft 358 kts 165°
2026-05-07 18:43 36.05096 25.43399 18020 ft 356 kts 165°
2026-05-07 18:44 36.02753 25.44346 17630 ft 353 kts 165°
2026-05-07 18:44 36.00424 25.45286 17235 ft 351 kts 164°
2026-05-07 18:44 35.98107 25.46218 16857 ft 349 kts 164°
2026-05-07 18:44 35.95807 25.47144 16480 ft 347 kts 164°
2026-05-07 18:45 35.93521 25.48063 16105 ft 345 kts 164°
2026-05-07 18:45 35.91246 25.48977 15732 ft 343 kts 164°
2026-05-07 18:45 35.88982 25.49887 15367 ft 341 kts 164°
2026-05-07 18:45 35.86724 25.50793 14973 ft 341 kts 164°
2026-05-07 18:46 35.84471 25.51696 14575 ft 341 kts 163°
2026-05-07 18:46 35.82218 25.52597 14162 ft 340 kts 163°
2026-05-07 18:46 35.79967 25.53496 13751 ft 340 kts 163°
2026-05-07 18:46 35.77722 25.54393 13307 ft 339 kts 163°
2026-05-07 18:47 35.75476 25.55289 12864 ft 338 kts 163°
2026-05-07 18:47 35.73241 25.56181 12442 ft 337 kts 163°
2026-05-07 18:47 35.71011 25.57075 12019 ft 336 kts 162°
2026-05-07 18:47 35.68907 25.58316 11602 ft 336 kts 147°
2026-05-07 18:48 35.67058 25.60070 11195 ft 335 kts 141°
2026-05-07 18:48 35.65253 25.61868 10790 ft 334 kts 141°
2026-05-07 18:48 35.63447 25.63654 10391 ft 333 kts 141°
2026-05-07 18:48 35.61535 25.65226 9986 ft 330 kts 159°
2026-05-07 18:49 35.59304 25.65629 9541 ft 325 kts 188°
2026-05-07 18:49 35.57234 25.64667 9103 ft 319 kts 218°
2026-05-07 18:49 35.55790 25.62658 8678 ft 314 kts 240°
2026-05-07 18:49 35.54822 25.60273 8262 ft 311 kts 248°
2026-05-07 18:50 35.53991 25.57824 7851 ft 310 kts 249°
2026-05-07 18:50 35.53168 25.55380 7426 ft 309 kts 248°
2026-05-07 18:50 35.52311 25.52962 7020 ft 309 kts 244°
2026-05-07 18:50 35.51263 25.50666 6619 ft 308 kts 238°
2026-05-07 18:51 35.50101 25.48463 6195 ft 307 kts 236°
2026-05-07 18:51 35.48902 25.46296 5768 ft 306 kts 236°
2026-05-07 18:51 35.47705 25.44139 5342 ft 306 kts 236°
2026-05-07 18:51 35.46523 25.41977 4930 ft 305 kts 236°
2026-05-07 18:52 35.45367 25.39828 4495 ft 296 kts 236°
2026-05-07 18:52 35.44230 25.37794 4063 ft 282 kts 227°
2026-05-07 18:52 35.42650 25.36528 3611 ft 270 kts 195°
2026-05-07 18:52 35.40814 25.36203 3068 ft 265 kts 180°
2026-05-07 18:53 35.38986 25.36260 2519 ft 262 kts 176°
2026-05-07 18:53 35.37182 25.36398 2068 ft 254 kts 176°
2026-05-07 18:53 35.35488 25.36499 1971 ft 233 kts 178°
2026-05-07 18:53 35.33967 25.36501 1968 ft 202 kts 189°
2026-05-07 18:54 35.32769 25.35750 1958 ft 192 kts 225°
2026-05-07 18:54 35.32300 25.34356 2387 ft 181 kts 261°
2026-05-07 18:54 35.32312 25.32819 2213 ft 172 kts 279°
2026-05-07 18:54 35.32521 25.31455 2201 ft 157 kts 281°
2026-05-07 18:55 35.32722 25.30178 2126 ft 148 kts 280°
2026-05-07 18:55 35.32895 25.28948 1805 ft 144 kts 278°
2026-05-07 18:55 35.33044 25.27750 1528 ft 141 kts 277°
2026-05-07 18:55 35.33178 25.26561 1310 ft 140 kts 276°
2026-05-07 18:56 35.33303 25.25362 1117 ft 139 kts 275°
2026-05-07 18:56 35.33414 25.24231 1038 ft 137 kts 275°
2026-05-07 18:56 35.33521 25.23079 1016 ft 136 kts 275°
2026-05-07 18:56 35.33625 25.21913 1017 ft 136 kts 274°
2026-05-07 18:57 35.33723 25.20753 901 ft 138 kts 274°
2026-05-07 18:57 35.33846 25.19583 416 ft 143 kts 277°
2026-05-07 18:57 35.33962 25.18380 242 ft 137 kts 270°
2026-05-07 18:57 35.33991 25.17137 739 ft 153 kts 267°
2026-05-07 18:58 35.34011 25.15759 1256 ft 169 kts 271°
2026-05-07 18:58 35.34055 25.14258 1731 ft 186 kts 271°
2026-05-07 18:58 35.34098 25.12599 1990 ft 197 kts 271°
2026-05-07 18:58 35.34138 25.10933 2005 ft 195 kts 271°
2026-05-07 18:59 35.34042 25.09292 2003 ft 193 kts 250°
2026-05-07 18:59 35.33244 25.08051 1997 ft 178 kts 210°
2026-05-07 18:59 35.32173 25.07546 1994 ft 157 kts 191°
2026-05-07 18:59 35.31161 25.07784 1996 ft 150 kts 142°
2026-05-07 19:00 35.30672 25.08853 1996 ft 148 kts 92°
2026-05-07 19:00 35.30798 25.10088 1941 ft 145 kts 77°
2026-05-07 19:00 35.31050 25.11280 1676 ft 142 kts 75°
2026-05-07 19:00 35.31321 25.12420 1522 ft 135 kts 74°
2026-05-07 19:01 35.31667 25.13496 1191 ft 140 kts 50°
2026-05-07 19:01 35.32473 25.14148 1022 ft 141 kts 25°
2026-05-07 19:01 35.33341 25.14721 1013 ft 142 kts 39°
2026-05-07 19:01 35.33977 25.15689 542 ft 151 kts 71°
2026-05-07 19:02 35.34058 25.16959 113 ft 143 kts 98°
2026-05-07 19:02 35.33967 25.18067 101 ft 110 kts 98°
2026-05-07 19:02 35.33927 25.18633 109 ft 23 kts 95°
2026-05-07 19:02 35.33925 25.18661 110 ft 0 kts 95°
2026-05-07 19:03 35.33915 25.18801 114 ft 31 kts 97°
2026-05-07 19:03 35.33872 25.18999 114 ft 9 kts 158°
2026-05-07 19:03 35.33839 25.18968 117 ft 17 kts 229°
2026-05-07 19:03 35.33832 25.18744 114 ft 27 kts 264°
2026-05-07 19:04 35.33845 25.18534 109 ft 23 kts 275°
2026-05-07 19:04 35.33862 25.18324 106 ft 27 kts 275°
2026-05-07 19:04 35.33868 25.18080 101 ft 31 kts 273°
2026-05-07 19:04 35.33882 25.17827 97 ft 15 kts 274°
2026-05-07 19:05 35.33889 25.17681 92 ft 15 kts 266°
2026-05-07 19:05 35.33853 25.17572 90 ft 10 kts 288°
2026-05-07 19:05 35.33852 25.17543 88 ft 1 kts 259°